Zurück zum Katalog

STARLINK-3700

AktivKommunikationVLEO
NORAD 51956·PAYLOAD·🇺🇸 United States

Gestartet Mar 9, 2022 von Cape Canaveral Space Force Station

Loading…

Nächste Überflüge (nächste 24 Stunden)

TLE

AktuellSource: CelesTrak SupGP

Epoche: Sep 14, 2026, 21:52 UTC

1 51956C 22025A   26257.91159722  .00008558  00000+0  27517-3 0  2572
2 51956  53.1576 213.0522 0001273  96.1247 327.6885 15.31701380    11

Verfolge STARLINK-3700 in Echtzeit mit AllMySat

Download on the App Store